Time,TemperatureF,DewpointF,PressureIn,WindDirection,WindDirectionDegrees,WindSpeedMPH,WindSpeedGustMPH,Humidity,HourlyPrecipIn,Conditions,Clouds,dailyrainin,SoftwareType,DateUTC
2013-03-28 00:01:00,69.0,14.0,30.02,NNW,332,1.0,6.0,12,0.00,,,0.00,,2013-03-28 07:01:00,
2013-03-28 00:12:00,69.0,14.0,30.02,NNW,332,1.0,6.0,12,0.00,,,0.00,,2013-03-28 07:12:00,
2013-03-28 00:21:00,68.0,17.0,30.02,NNE,14,3.0,5.0,14,0.00,,,0.00,,2013-03-28 07:21:00,
2013-03-28 00:31:00,68.0,19.0,30.02,NNE,19,2.0,6.0,15,0.00,,,0.00,,2013-03-28 07:31:00,
2013-03-28 00:42:00,68.0,19.0,30.02,NNE,19,2.0,6.0,15,0.00,,,0.00,,2013-03-28 07:42:00,
2013-03-28 00:52:00,68.0,19.0,30.02,NNE,19,2.0,6.0,15,0.00,,,0.00,,2013-03-28 07:52:00,
2013-03-28 01:02:00,65.0,15.0,30.03,East,99,3.0,7.0,14,0.00,,,0.00,,2013-03-28 08:02:00,
2013-03-28 01:11:00,65.0,15.0,30.03,East,99,3.0,7.0,14,0.00,,,0.00,,2013-03-28 08:11:00,
2013-03-28 01:21:00,65.0,15.0,30.02,East,95,3.0,8.0,14,0.00,,,0.00,,2013-03-28 08:21:00,
2013-03-28 01:32:00,66.0,15.0,30.02,East,89,3.0,7.0,14,0.00,,,0.00,,2013-03-28 08:32:00,
2013-03-28 01:41:00,66.0,15.0,30.02,East,89,3.0,7.0,14,0.00,,,0.00,,2013-03-28 08:41:00,
2013-03-28 01:52:00,66.0,15.0,30.02,ENE,77,4.0,7.0,14,0.00,,,0.00,,2013-03-28 08:52:00,
2013-03-28 02:01:00,66.0,15.0,30.02,East,100,2.0,6.0,14,0.00,,,0.00,,2013-03-28 09:01:00,
2013-03-28 02:11:00,66.0,15.0,30.02,East,100,2.0,6.0,14,0.00,,,0.00,,2013-03-28 09:11:00,
2013-03-28 02:21:00,66.0,15.0,30.01,East,87,2.0,5.0,14,0.00,,,0.00,,2013-03-28 09:21:00,
2013-03-28 02:32:00,67.0,16.0,30.01,East,87,2.0,5.0,14,0.00,,,0.00,,2013-03-28 09:32:00,
2013-03-28 02:42:00,66.0,17.0,30.01,ESE,103,2.0,4.0,15,0.00,,,0.00,,2013-03-28 09:42:00,
2013-03-28 02:52:00,66.0,17.0,30.01,ESE,103,2.0,4.0,15,0.00,,,0.00,,2013-03-28 09:52:00,
2013-03-28 03:02:00,65.0,18.0,30.01,ENE,72,2.0,5.0,16,0.00,,,0.00,,2013-03-28 10:02:00,
2013-03-28 03:12:00,65.0,18.0,30.01,ENE,72,2.0,5.0,16,0.00,,,0.00,,2013-03-28 10:12:00,
2013-03-28 03:22:00,65.0,18.0,30.01,East,88,3.0,6.0,16,0.00,,,0.00,,2013-03-28 10:22:00,
2013-03-28 03:32:00,65.0,18.0,30.00,NE,56,2.0,7.0,16,0.00,,,0.00,,2013-03-28 10:32:00,
2013-03-28 03:41:00,65.0,18.0,30.00,NE,56,2.0,7.0,16,0.00,,,0.00,,2013-03-28 10:41:00,
2013-03-28 03:52:00,65.0,16.0,30.00,East,101,3.0,5.0,15,0.00,,,0.00,,2013-03-28 10:52:00,
2013-03-28 04:02:00,65.0,18.0,30.00,East,86,2.0,3.0,16,0.00,,,0.00,,2013-03-28 11:02:00,
2013-03-28 04:11:00,65.0,18.0,30.00,East,86,2.0,3.0,16,0.00,,,0.00,,2013-03-28 11:11:00,
2013-03-28 04:22:00,65.0,18.0,30.00,NE,36,2.0,3.0,16,0.00,,,0.00,,2013-03-28 11:22:00,
2013-03-28 04:32:00,63.0,18.0,30.00,NE,36,2.0,4.0,17,0.00,,,0.00,,2013-03-28 11:32:00,
2013-03-28 04:42:00,63.0,18.0,30.00,NE,36,2.0,4.0,17,0.00,,,0.00,,2013-03-28 11:42:00,
2013-03-28 04:52:00,63.0,19.0,30.00,NE,42,2.0,3.0,18,0.00,,,0.00,,2013-03-28 11:52:00,
2013-03-28 05:02:00,63.0,19.0,30.01,NNE,21,2.0,4.0,18,0.00,,,0.00,,2013-03-28 12:02:00,
2013-03-28 05:11:00,63.0,19.0,30.01,NNE,21,2.0,4.0,18,0.00,,,0.00,,2013-03-28 12:11:00,
2013-03-28 05:22:00,63.0,19.0,30.01,NNE,21,1.0,3.0,18,0.00,,,0.00,,2013-03-28 12:22:00,
2013-03-28 05:32:00,63.0,20.0,30.02,NNE,31,2.0,3.0,19,0.00,,,0.00,,2013-03-28 12:32:00,
2013-03-28 05:41:00,63.0,20.0,30.02,NNE,31,2.0,3.0,19,0.00,,,0.00,,2013-03-28 12:41:00,
2013-03-28 05:51:00,62.0,20.0,30.01,ENE,74,2.0,5.0,20,0.00,,,0.00,,2013-03-28 12:51:00,
2013-03-28 06:02:00,62.0,20.0,30.02,ENE,75,2.0,5.0,20,0.00,,,0.00,,2013-03-28 13:02:00,
2013-03-28 06:11:00,62.0,20.0,30.02,ENE,75,2.0,5.0,20,0.00,,,0.00,,2013-03-28 13:11:00,
2013-03-28 06:21:00,62.0,22.0,30.03,East,79,3.0,5.0,21,0.00,,,0.00,,2013-03-28 13:21:00,
2013-03-28 06:32:00,62.0,22.0,30.03,East,80,4.0,6.0,21,0.00,,,0.00,,2013-03-28 13:32:00,
2013-03-28 06:41:00,62.0,22.0,30.03,East,80,4.0,6.0,21,0.00,,,0.00,,2013-03-28 13:41:00,
2013-03-28 06:51:00,62.0,23.0,30.03,East,87,3.0,6.0,22,0.00,,,0.00,,2013-03-28 13:51:00,
2013-03-28 07:02:00,61.0,23.0,30.03,East,93,2.0,5.0,23,0.00,,,0.00,,2013-03-28 14:02:00,
2013-03-28 07:11:00,61.0,23.0,30.03,East,93,2.0,5.0,23,0.00,,,0.00,,2013-03-28 14:11:00,
2013-03-28 07:21:00,61.0,23.0,30.03,ESE,105,2.0,5.0,23,0.00,,,0.00,,2013-03-28 14:21:00,
2013-03-28 07:32:00,63.0,24.0,30.04,East,87,3.0,6.0,22,0.00,,,0.00,,2013-03-28 14:32:00,
2013-03-28 08:01:00,65.0,24.0,30.04,East,99,5.0,9.0,21,0.00,,,0.00,,2013-03-28 15:01:00,
2013-03-28 08:21:00,66.0,25.0,30.05,ESE,114,7.0,9.0,21,0.00,,,0.00,,2013-03-28 15:21:00,
2013-03-28 08:32:00,67.0,26.0,30.06,ESE,123,3.0,7.0,21,0.00,,,0.00,,2013-03-28 15:32:00,
2013-03-28 08:42:00,67.0,26.0,30.06,ESE,123,3.0,7.0,21,0.00,,,0.00,,2013-03-28 15:42:00,
2013-03-28 08:52:00,68.0,25.0,30.06,SSE,148,4.0,8.0,20,0.00,,,0.00,,2013-03-28 15:52:00,
2013-03-28 09:02:00,71.0,27.0,30.06,SE,138,3.0,8.0,19,0.00,,,0.00,,2013-03-28 16:02:00,
2013-03-28 09:22:00,71.0,25.0,30.07,South,184,5.0,8.0,18,0.00,,,0.00,,2013-03-28 16:22:00,
2013-03-28 09:32:00,71.0,27.0,30.07,SSE,156,3.0,7.0,19,0.00,,,0.00,,2013-03-28 16:32:00,
2013-03-28 09:41:00,71.0,27.0,30.07,SSE,156,3.0,7.0,19,0.00,,,0.00,,2013-03-28 16:41:00,
2013-03-28 09:51:00,72.0,26.0,30.07,SSE,161,4.0,8.0,18,0.00,,,0.00,,2013-03-28 16:51:00,
2013-03-28 10:02:00,73.0,27.0,30.07,South,183,4.0,8.0,18,0.00,,,0.00,,2013-03-28 17:02:00,
2013-03-28 10:12:00,73.0,27.0,30.07,South,183,4.0,8.0,18,0.00,,,0.00,,2013-03-28 17:12:00,
2013-03-28 10:21:00,74.0,26.0,30.08,SSE,159,5.0,9.0,17,0.00,,,0.00,,2013-03-28 17:21:00,
2013-03-28 10:32:00,74.0,32.0,30.08,ESE,113,4.0,12.0,21,0.00,,,0.00,,2013-03-28 17:32:00,
2013-03-28 10:52:00,74.0,32.0,30.08,ESE,113,4.0,12.0,21,0.00,,,0.00,,2013-03-28 17:52:00,
2013-03-28 11:02:00,76.0,32.0,30.07,SE,138,3.0,11.0,20,0.00,,,0.00,,2013-03-28 18:02:00,
2013-03-28 11:12:00,76.0,32.0,30.07,SE,138,3.0,11.0,20,0.00,,,0.00,,2013-03-28 18:12:00,
2013-03-28 11:22:00,76.0,33.0,30.08,SW,217,5.0,9.0,21,0.00,,,0.00,,2013-03-28 18:22:00,
2013-03-28 11:32:00,76.0,32.0,30.07,SE,133,3.0,7.0,20,0.00,,,0.00,,2013-03-28 18:32:00,
2013-03-28 11:41:00,76.0,32.0,30.07,SE,133,3.0,7.0,20,0.00,,,0.00,,2013-03-28 18:41:00,
2013-03-28 11:52:00,75.0,31.0,30.08,SW,227,3.0,9.0,20,0.00,,,0.00,,2013-03-28 18:52:00,
2013-03-28 12:02:00,77.0,30.0,30.06,South,174,4.0,7.0,18,0.00,,,0.00,,2013-03-28 19:02:00,
2013-03-28 12:11:00,77.0,30.0,30.06,South,174,4.0,7.0,18,0.00,,,0.00,,2013-03-28 19:11:00,
2013-03-28 12:22:00,77.0,30.0,30.06,SSW,200,5.0,9.0,18,0.00,,,0.00,,2013-03-28 19:22:00,
2013-03-28 12:32:00,77.0,29.0,30.06,WSW,257,6.0,9.0,17,0.00,,,0.00,,2013-03-28 19:32:00,
2013-03-28 12:41:00,77.0,29.0,30.06,WSW,257,6.0,9.0,17,0.00,,,0.00,,2013-03-28 19:41:00,
2013-03-28 12:52:00,78.0,27.0,30.05,South,177,3.0,13.0,15,0.00,,,0.00,,2013-03-28 19:52:00,
2013-03-28 13:02:00,77.0,27.0,30.05,WNW,286,4.0,7.0,16,0.00,,,0.00,,2013-03-28 20:02:00,
2013-03-28 13:21:00,77.0,27.0,30.05,WNW,286,4.0,7.0,16,0.00,,,0.00,,2013-03-28 20:21:00,
2013-03-28 13:32:00,79.0,26.0,30.04,WNW,296,2.0,9.0,14,0.00,,,0.00,,2013-03-28 20:32:00,
2013-03-28 13:42:00,79.0,26.0,30.04,WNW,296,2.0,9.0,14,0.00,,,0.00,,2013-03-28 20:42:00,
2013-03-28 13:53:00,79.0,26.0,30.04,WNW,296,2.0,9.0,14,0.00,,,0.00,,2013-03-28 20:53:00,
2013-03-28 14:02:00,81.0,27.0,30.03,WSW,258,4.0,11.0,14,0.00,,,0.00,,2013-03-28 21:02:00,
2013-03-28 14:11:00,81.0,27.0,30.03,WSW,258,4.0,11.0,14,0.00,,,0.00,,2013-03-28 21:11:00,
2013-03-28 14:22:00,81.0,27.0,30.03,WSW,258,4.0,11.0,14,0.00,,,0.00,,2013-03-28 21:22:00,
2013-03-28 14:32:00,81.0,24.0,30.00,WSW,249,5.0,16.0,12,0.00,,,0.00,,2013-03-28 21:32:00,
2013-03-28 14:42:00,81.0,24.0,30.00,WSW,249,5.0,16.0,12,0.00,,,0.00,,2013-03-28 21:42:00,
2013-03-28 14:53:00,81.0,19.0,29.99,WNW,287,5.0,14.0,10,0.00,,,0.00,,2013-03-28 21:53:00,
2013-03-28 15:02:00,81.0,19.0,29.99,WSW,246,7.0,11.0,10,0.00,,,0.00,,2013-03-28 22:02:00,
2013-03-28 15:12:00,81.0,19.0,29.99,WSW,246,7.0,11.0,10,0.00,,,0.00,,2013-03-28 22:12:00,
2013-03-28 15:22:00,81.0,22.0,29.99,West,265,4.0,9.0,11,0.00,,,0.00,,2013-03-28 22:22:00,
2013-03-28 15:32:00,82.0,20.0,29.98,West,273,3.0,19.0,10,0.00,,,0.00,,2013-03-28 22:32:00,
2013-03-28 15:41:00,82.0,20.0,29.98,West,273,3.0,19.0,10,0.00,,,0.00,,2013-03-28 22:41:00,
2013-03-28 15:52:00,81.0,17.0,29.98,West,276,7.0,15.0,9,0.00,,,0.00,,2013-03-28 22:52:00,
2013-03-28 16:02:00,82.0,20.0,29.98,WNW,286,6.0,11.0,10,0.00,,,0.00,,2013-03-28 23:02:00,
2013-03-28 16:11:00,82.0,20.0,29.98,WNW,286,6.0,11.0,10,0.00,,,0.00,,2013-03-28 23:11:00,
2013-03-28 16:21:00,81.0,19.0,29.98,NW,319,6.0,12.0,10,0.00,,,0.00,,2013-03-28 23:21:00,
2013-03-28 16:31:00,80.0,19.0,29.98,West,279,5.0,11.0,10,0.00,,,0.00,,2013-03-28 23:31:00,
2013-03-28 16:42:00,80.0,19.0,29.98,West,279,5.0,11.0,10,0.00,,,0.00,,2013-03-28 23:42:00,
2013-03-28 16:52:00,80.0,19.0,29.98,NW,315,3.0,10.0,10,0.00,,,0.00,,2013-03-28 23:52:00,
2013-03-28 17:02:00,80.0,19.0,29.98,West,281,5.0,10.0,10,0.00,,,0.00,,2013-03-29 00:02:00,
2013-03-28 17:11:00,80.0,19.0,29.98,West,281,5.0,10.0,10,0.00,,,0.00,,2013-03-29 00:11:00,
2013-03-28 17:22:00,80.0,19.0,29.98,WNW,284,3.0,13.0,10,0.00,,,0.00,,2013-03-29 00:22:00,
2013-03-28 17:32:00,80.0,16.0,29.98,NW,320,2.0,7.0,9,0.00,,,0.00,,2013-03-29 00:32:00,
2013-03-28 17:42:00,80.0,16.0,29.98,NW,320,2.0,7.0,9,0.00,,,0.00,,2013-03-29 00:42:00,
2013-03-28 17:52:00,79.0,15.0,29.98,NW,311,6.0,11.0,9,0.00,,,0.00,,2013-03-29 00:52:00,
2013-03-28 18:01:00,79.0,15.0,29.98,NW,307,3.0,13.0,9,0.00,,,0.00,,2013-03-29 01:01:00,
2013-03-28 18:11:00,79.0,15.0,29.98,NW,307,3.0,13.0,9,0.00,,,0.00,,2013-03-29 01:11:00,
2013-03-28 18:22:00,78.0,17.0,29.98,WNW,292,7.0,13.0,10,0.00,,,0.00,,2013-03-29 01:22:00,
2013-03-28 18:31:00,78.0,17.0,29.98,WNW,298,6.0,12.0,10,0.00,,,0.00,,2013-03-29 01:31:00,
2013-03-28 18:42:00,78.0,17.0,29.98,WNW,298,6.0,12.0,10,0.00,,,0.00,,2013-03-29 01:42:00,
2013-03-28 18:52:00,77.0,16.0,29.99,NW,304,5.0,13.0,10,0.00,,,0.00,,2013-03-29 01:52:00,
2013-03-28 19:02:00,77.0,16.0,29.99,WNW,302,6.0,12.0,10,0.00,,,0.00,,2013-03-29 02:02:00,
2013-03-28 19:11:00,77.0,16.0,29.99,WNW,302,6.0,12.0,10,0.00,,,0.00,,2013-03-29 02:11:00,
2013-03-28 19:21:00,76.0,16.0,30.00,NW,313,7.0,11.0,10,0.00,,,0.00,,2013-03-29 02:21:00,
2013-03-28 19:31:00,76.0,16.0,30.00,NW,315,5.0,9.0,10,0.00,,,0.00,,2013-03-29 02:31:00,
2013-03-28 19:41:00,76.0,16.0,30.00,NW,315,5.0,9.0,10,0.00,,,0.00,,2013-03-29 02:41:00,
2013-03-28 19:52:00,75.0,17.0,30.01,NW,317,4.0,9.0,11,0.00,,,0.00,,2013-03-29 02:52:00,
2013-03-28 20:01:00,75.0,15.0,30.01,NW,317,5.0,11.0,10,0.00,,,0.00,,2013-03-29 03:01:00,
2013-03-28 20:11:00,75.0,15.0,30.01,NW,317,5.0,11.0,10,0.00,,,0.00,,2013-03-29 03:11:00,
2013-03-28 20:21:00,75.0,15.0,30.02,WNW,298,6.0,10.0,10,0.00,,,0.00,,2013-03-29 03:21:00,
2013-03-28 20:32:00,75.0,15.0,30.02,WNW,302,5.0,9.0,10,0.00,,,0.00,,2013-03-29 03:32:00,
2013-03-28 20:42:00,75.0,15.0,30.02,WNW,302,5.0,9.0,10,0.00,,,0.00,,2013-03-29 03:42:00,
2013-03-28 20:53:00,74.0,16.0,30.03,NW,304,8.0,12.0,11,0.00,,,0.00,,2013-03-29 03:53:00,
2013-03-28 21:02:00,74.0,14.0,30.04,NW,306,5.0,11.0,10,0.00,,,0.00,,2013-03-29 04:02:00,
2013-03-28 21:12:00,74.0,14.0,30.04,NW,306,5.0,11.0,10,0.00,,,0.00,,2013-03-29 04:12:00,
2013-03-28 21:22:00,74.0,14.0,30.04,NW,311,8.0,13.0,10,0.00,,,0.00,,2013-03-29 04:22:00,
2013-03-28 21:32:00,73.0,15.0,30.05,NW,312,9.0,16.0,11,0.00,,,0.00,,2013-03-29 04:32:00,
2013-03-28 21:42:00,73.0,15.0,30.05,NW,312,9.0,16.0,11,0.00,,,0.00,,2013-03-29 04:42:00,
2013-03-28 21:52:00,73.0,17.0,30.06,NW,313,8.0,15.0,12,0.00,,,0.00,,2013-03-29 04:52:00,
2013-03-28 22:02:00,72.0,17.0,30.06,NNW,336,5.0,14.0,12,0.00,,,0.00,,2013-03-29 05:02:00,
2013-03-28 22:12:00,72.0,17.0,30.06,NNW,336,5.0,14.0,12,0.00,,,0.00,,2013-03-29 05:12:00,
2013-03-28 22:22:00,72.0,17.0,30.06,NW,316,3.0,12.0,12,0.00,,,0.00,,2013-03-29 05:22:00,
2013-03-28 22:32:00,72.0,18.0,30.06,NW,314,7.0,18.0,13,0.00,,,0.00,,2013-03-29 05:32:00,
2013-03-28 22:42:00,72.0,18.0,30.06,NW,314,7.0,18.0,13,0.00,,,0.00,,2013-03-29 05:42:00,
2013-03-28 22:52:00,72.0,17.0,30.07,WNW,293,8.0,16.0,12,0.00,,,0.00,,2013-03-29 05:52:00,
2013-03-28 23:01:00,72.0,15.0,30.07,NW,319,7.0,14.0,11,0.00,,,0.00,,2013-03-29 06:01:00,
2013-03-28 23:12:00,72.0,15.0,30.07,NW,319,7.0,14.0,11,0.00,,,0.00,,2013-03-29 06:12:00,
2013-03-28 23:22:00,72.0,12.0,30.07,NNW,328,5.0,13.0,10,0.00,,,0.00,,2013-03-29 06:22:00,
2013-03-28 23:32:00,72.0,12.0,30.07,WNW,301,5.0,12.0,10,0.00,,,0.00,,2013-03-29 06:32:00,
2013-03-28 23:41:00,72.0,12.0,30.07,WNW,301,5.0,12.0,10,0.00,,,0.00,,2013-03-29 06:41:00,
2013-03-28 23:52:00,71.0,12.0,30.07,NW,306,7.0,15.0,10,0.00,,,0.00,,2013-03-29 06:52:00,